This demonstration page uses our WeatherBlox Daily Observations layout. Learn more.

Left ArrowRight Arrow

47.50024, -111.30081

Hourly Observations for April 23, 2018

Temp ( °F °C ) Dew Point ( °F °C ) Humidity (%) Winds ( mph kmh ) Pressure ( in mb ) Visibility ( mi km ) Precip ( " mm )
12:53 am 00:53 Clear 40 4.4 24 -4.4 53 53 NE 15 24 30.27 1025 10 16 0.00 0.00
1:53 am 01:53 Mostly Cloudy 40 4.4 23 -5 51 51 ENE 15 24 30.30 1026 10 16 0.00 0.00
2:53 am 02:53 Cloudy 39 3.9 24 -4.4 55 55 NE 10 17 30.29 1026 10 16 0.00 0.00
3:53 am 03:53 Cloudy 38 3.3 25 -3.9 60 60 NNE 8 13 30.29 1026 10 16 0.00 0.00
4:53 am 04:53 Cloudy 38 3.3 25 -3.9 60 60 NNW 10 17 30.32 1027 10 16 0.00 0.00
5:53 am 05:53 Cloudy 38 3.3 25 -3.9 60 60 Calm 30.35 1028 10 16 0.00 0.00
6:53 am 06:53 Cloudy 37 2.8 28 -2.2 70 70 NNE 6 9 30.36 1028 10 16 0.00 0.00
7:53 am 07:53 Cloudy 37 2.8 27 -2.8 67 67 NNW 8 13 30.40 1029 10 16 0.00 0.00
8:53 am 08:53 Cloudy 38 3.3 28 -2.2 68 68 NNW 10 17 30.44 1031 10 16 0.00 0.00
9:53 am 09:53 Cloudy 40 4.4 28 -2.2 63 63 NNE 9 15 30.45 1031 10 16 0.00 0.00
10:53 am 10:53 Cloudy 43 6.1 28 -2.2 56 56 NE 12 19 30.45 1031 10 16 0.00 0.00
11:53 am 11:53 Mostly Sunny 45 7.2 29 -1.7 54 54 NE 12 19 30.46 1032 10 16 0.00 0.00
12:53 pm 12:53 Mostly Cloudy 46 7.8 27 -2.8 47 47 NE 15 24 30.47 1032 10 16 0.00 0.00
1:53 pm 13:53 Partly Cloudy 48 8.9 27 -2.8 44 44 NNE 9 15 30.46 1032 10 16 0.00 0.00
2:53 pm 14:53 Partly Cloudy 49 9.4 25 -3.9 39 39 NE 13 20 30.47 1032 10 16 0.00 0.00
3:53 pm 15:53 Mostly Sunny 49 9.4 24 -4.4 38 38 ENE 9 15 30.47 1032 10 16 0.00 0.00
4:53 pm 16:53 Sunny 49 9.4 24 -4.4 38 38 ENE 8 13 30.47 1032 10 16 0.00 0.00
5:53 pm 17:53 Sunny 49 9.4 21 -6.1 33 33 E 6 9 30.48 1032 10 16 0.00 0.00
6:53 pm 18:53 Sunny 49 9.4 21 -6.1 33 33 ESE 7 11 30.48 1032 10 16 0.00 0.00
7:53 pm 19:53 Sunny 48 8.9 19 -7.2 32 32 Calm 30.49 1032 10 16 0.00 0.00
8:53 pm 20:53 Clear 44 6.7 19 -7.2 37 37 Calm 30.50 1033 10 16 0.00 0.00
9:53 pm 21:53 Clear 41 5 20 -6.7 43 43 Calm 30.52 1034 10 16 0.00 0.00
10:53 pm 22:53 Clear 36 2.2 20 -6.7 52 52 SSW 5 7 30.53 1034 10 16 0.00 0.00
11:53 pm 23:53 Clear 37 2.8 20 -6.7 50 50 SW 5 7 30.53 1034 10 16 0.00 0.00

Powered by AerisWeather